Weather in Aldoma

Russia / Khabarovsk Krai     56°43′19″N   138°00′48″E
temp.,
°C
wind,
m/s
gust,
m/s
humid.,
%
clouds,
%
prec.,
mm/h
press.,
hPa
HPBL,
m
27 february, sat
sat2701:00−24wnw43690 0.0 102933
04:00−23nw43640 0.0 102825
07:00−23nw33610 0.0 102720
10:00−18nw11640 0.0 102757
13:00−16se22760 0.0 1025197
16:00−18ese118510 0.0 1023184
19:00−24e0197100 0.0 102220
22:00−25nne1198100 0.0 102120
28 february, sun
sun2801:00−24ne1194100 0.0 101921
04:00−23ene1199100 0.4 101747
07:00−23ne0099100 1.2 101640
10:00−21nne1195100 1.9 1016203
13:00−19nne1186100 0.3 1016375
16:00−17se1191100 0.5 1016262
19:00−20wnw1199100 0.1 101820
22:00−21wnw3378100 0.2 102060
1 march, mon
mon101:00−23wnw4575100 0.0 1020144
04:00−25nw5574100 0.0 1022180
07:00−26nw5673100 0.0 1022205
10:00−25nw6867100 0.0 1022522
13:00−24nw5865100 0.0 1021640
16:00−24nw5965100 0.0 1021680
19:00−26nw4672100 0.0 1021243
22:00−27nw5673100 0.0 1021188
2 march, tue
tue201:00−27nw4674100 0.0 1021158
04:00−28nw4575100 0.0 1021147
07:00−29nw4474100 0.0 102194
10:00−27nw4769100 0.0 1021521
13:00−24nw466199 0.0 1022834
16:00−24nw466199 0.0 1022924
19:00−29nw337161 0.0 102326
22:00−31nw437358 0.0 102428
3 march, wed
wed301:00−32nw437340 0.0 102330
04:00−32nw437422 0.0 102334
07:00−32nw43742 0.0 102236
10:00−28nw34731 0.0 1022197
13:00−23nw34620 0.0 1019586
16:00−22nw34620 0.0 1017645
19:00−28nw33700 0.0 101723
22:00−30nw437224 0.0 101630